Index of /20260501/WXO-DD/model_rdps/10km/12/041
Name Last modified Size Description
Parent Directory -
20260501T12Z_MSC_RDPS_AbsoluteVorticity_IsbL-0250_RLatLon0.09_PT041H.grib2 2026-05-01 15:08 609K
20260501T12Z_MSC_RDPS_AbsoluteVorticity_IsbL-0500_RLatLon0.09_PT041H.grib2 2026-05-01 15:08 572K
20260501T12Z_MSC_RDPS_AbsoluteVorticity_IsbL-0700_RLatLon0.09_PT041H.grib2 2026-05-01 15:08 623K
20260501T12Z_MSC_RDPS_AbsoluteVorticity_IsbL-0850_RLatLon0.09_PT041H.grib2 2026-05-01 15:08 779K
20260501T12Z_MSC_RDPS_AirTemp_AGL-120m_RLatLon0.09_PT041H.grib2 2026-05-01 15:08 369K
20260501T12Z_MSC_RDPS_AirTemp_AGL-2m_RLatLon0.09_PT041H.grib2 2026-05-01 15:08 623K
20260501T12Z_MSC_RDPS_AirTemp_AGL-40m_RLatLon0.09_PT041H.grib2 2026-05-01 15:08 386K
20260501T12Z_MSC_RDPS_AirTemp_AGL-80m_RLatLon0.09_PT041H.grib2 2026-05-01 15:08 376K
20260501T12Z_MSC_RDPS_AirTemp_IsbL-0001_RLatLon0.09_PT041H.grib2 2026-05-01 15:08 295K
20260501T12Z_MSC_RDPS_AirTemp_IsbL-0005_RLatLon0.09_PT041H.grib2 2026-05-01 15:08 286K
20260501T12Z_MSC_RDPS_AirTemp_IsbL-0010_RLatLon0.09_PT041H.grib2 2026-05-01 15:08 296K
20260501T12Z_MSC_RDPS_AirTemp_IsbL-0020_RLatLon0.09_PT041H.grib2 2026-05-01 15:08 408K
20260501T12Z_MSC_RDPS_AirTemp_IsbL-0030_RLatLon0.09_PT041H.grib2 2026-05-01 15:08 335K
20260501T12Z_MSC_RDPS_AirTemp_IsbL-0050_RLatLon0.09_PT041H.grib2 2026-05-01 15:08 314K
20260501T12Z_MSC_RDPS_AirTemp_IsbL-0100_RLatLon0.09_PT041H.grib2 2026-05-01 15:08 424K
20260501T12Z_MSC_RDPS_AirTemp_IsbL-0150_RLatLon0.09_PT041H.grib2 2026-05-01 15:08 418K
20260501T12Z_MSC_RDPS_AirTemp_IsbL-0175_RLatLon0.09_PT041H.grib2 2026-05-01 15:08 406K
20260501T12Z_MSC_RDPS_AirTemp_IsbL-0200_RLatLon0.09_PT041H.grib2 2026-05-01 15:08 410K
20260501T12Z_MSC_RDPS_AirTemp_IsbL-0225_RLatLon0.09_PT041H.grib2 2026-05-01 15:08 413K
20260501T12Z_MSC_RDPS_AirTemp_IsbL-0250_RLatLon0.09_PT041H.grib2 2026-05-01 15:08 418K
20260501T12Z_MSC_RDPS_AirTemp_IsbL-0275_RLatLon0.09_PT041H.grib2 2026-05-01 15:08 399K
20260501T12Z_MSC_RDPS_AirTemp_IsbL-0300_RLatLon0.09_PT041H.grib2 2026-05-01 15:08 407K
20260501T12Z_MSC_RDPS_AirTemp_IsbL-0350_RLatLon0.09_PT041H.grib2 2026-05-01 15:08 423K
20260501T12Z_MSC_RDPS_AirTemp_IsbL-0400_RLatLon0.09_PT041H.grib2 2026-05-01 15:08 424K
20260501T12Z_MSC_RDPS_AirTemp_IsbL-0450_RLatLon0.09_PT041H.grib2 2026-05-01 15:08 399K
20260501T12Z_MSC_RDPS_AirTemp_IsbL-0500_RLatLon0.09_PT041H.grib2 2026-05-01 15:08 410K
20260501T12Z_MSC_RDPS_AirTemp_IsbL-0550_RLatLon0.09_PT041H.grib2 2026-05-01 15:08 428K
20260501T12Z_MSC_RDPS_AirTemp_IsbL-0600_RLatLon0.09_PT041H.grib2 2026-05-01 15:08 444K
20260501T12Z_MSC_RDPS_AirTemp_IsbL-0650_RLatLon0.09_PT041H.grib2 2026-05-01 15:08 456K
20260501T12Z_MSC_RDPS_AirTemp_IsbL-0700_RLatLon0.09_PT041H.grib2 2026-05-01 15:08 481K
20260501T12Z_MSC_RDPS_AirTemp_IsbL-0750_RLatLon0.09_PT041H.grib2 2026-05-01 15:08 405K
20260501T12Z_MSC_RDPS_AirTemp_IsbL-0800_RLatLon0.09_PT041H.grib2 2026-05-01 15:08 446K
20260501T12Z_MSC_RDPS_AirTemp_IsbL-0850_RLatLon0.09_PT041H.grib2 2026-05-01 15:08 494K
20260501T12Z_MSC_RDPS_AirTemp_IsbL-0875_RLatLon0.09_PT041H.grib2 2026-05-01 15:08 517K
20260501T12Z_MSC_RDPS_AirTemp_IsbL-0900_RLatLon0.09_PT041H.grib2 2026-05-01 15:08 527K
20260501T12Z_MSC_RDPS_AirTemp_IsbL-0925_RLatLon0.09_PT041H.grib2 2026-05-01 15:08 519K
20260501T12Z_MSC_RDPS_AirTemp_IsbL-0950_RLatLon0.09_PT041H.grib2 2026-05-01 15:08 518K
20260501T12Z_MSC_RDPS_AirTemp_IsbL-0970_RLatLon0.09_PT041H.grib2 2026-05-01 15:08 511K
20260501T12Z_MSC_RDPS_AirTemp_IsbL-0985_RLatLon0.09_PT041H.grib2 2026-05-01 15:08 500K
20260501T12Z_MSC_RDPS_AirTemp_IsbL-1000_RLatLon0.09_PT041H.grib2 2026-05-01 15:08 483K
20260501T12Z_MSC_RDPS_AirTemp_IsbL-1015_RLatLon0.09_PT041H.grib2 2026-05-01 15:08 481K
20260501T12Z_MSC_RDPS_Albedo_Sfc_RLatLon0.09_PT041H.grib2 2026-05-01 15:08 157K
20260501T12Z_MSC_RDPS_CAPE_Sfc_RLatLon0.09_PT041H.grib2 2026-05-01 15:08 1.6M
20260501T12Z_MSC_RDPS_CIN_Sfc_RLatLon0.09_PT041H.grib2 2026-05-01 15:08 1.1M
20260501T12Z_MSC_RDPS_CloudWater_EAtm_RLatLon0.09_PT041H.grib2 2026-05-01 15:08 220K
20260501T12Z_MSC_RDPS_ConvectivePrecip-Accum_Sfc_RLatLon0.09_PT041H.grib2 2026-05-01 15:08 1.0M
20260501T12Z_MSC_RDPS_DewPointDepression_AGL-2m_RLatLon0.09_PT041H.grib2 2026-05-01 15:08 396K
20260501T12Z_MSC_RDPS_DewPointDepression_IsbL-0001_RLatLon0.09_PT041H.grib2 2026-05-01 15:08 193
20260501T12Z_MSC_RDPS_DewPointDepression_IsbL-0005_RLatLon0.09_PT041H.grib2 2026-05-01 15:08 193
20260501T12Z_MSC_RDPS_DewPointDepression_IsbL-0010_RLatLon0.09_PT041H.grib2 2026-05-01 15:08 193
20260501T12Z_MSC_RDPS_DewPointDepression_IsbL-0020_RLatLon0.09_PT041H.grib2 2026-05-01 15:08 193
20260501T12Z_MSC_RDPS_DewPointDepression_IsbL-0030_RLatLon0.09_PT041H.grib2 2026-05-01 15:08 193
20260501T12Z_MSC_RDPS_DewPointDepression_IsbL-0050_RLatLon0.09_PT041H.grib2 2026-05-01 15:08 104K
20260501T12Z_MSC_RDPS_DewPointDepression_IsbL-0100_RLatLon0.09_PT041H.grib2 2026-05-01 15:08 120K
20260501T12Z_MSC_RDPS_DewPointDepression_IsbL-0150_RLatLon0.09_PT041H.grib2 2026-05-01 15:08 150K
20260501T12Z_MSC_RDPS_DewPointDepression_IsbL-0175_RLatLon0.09_PT041H.grib2 2026-05-01 15:08 184K
20260501T12Z_MSC_RDPS_DewPointDepression_IsbL-0200_RLatLon0.09_PT041H.grib2 2026-05-01 15:08 218K
20260501T12Z_MSC_RDPS_DewPointDepression_IsbL-0225_RLatLon0.09_PT041H.grib2 2026-05-01 15:08 254K
20260501T12Z_MSC_RDPS_DewPointDepression_IsbL-0250_RLatLon0.09_PT041H.grib2 2026-05-01 15:08 291K
20260501T12Z_MSC_RDPS_DewPointDepression_IsbL-0275_RLatLon0.09_PT041H.grib2 2026-05-01 15:08 304K
20260501T12Z_MSC_RDPS_DewPointDepression_IsbL-0300_RLatLon0.09_PT041H.grib2 2026-05-01 15:08 321K
20260501T12Z_MSC_RDPS_DewPointDepression_IsbL-0350_RLatLon0.09_PT041H.grib2 2026-05-01 15:08 331K
20260501T12Z_MSC_RDPS_DewPointDepression_IsbL-0400_RLatLon0.09_PT041H.grib2 2026-05-01 15:08 341K
20260501T12Z_MSC_RDPS_DewPointDepression_IsbL-0450_RLatLon0.09_PT041H.grib2 2026-05-01 15:08 347K
20260501T12Z_MSC_RDPS_DewPointDepression_IsbL-0500_RLatLon0.09_PT041H.grib2 2026-05-01 15:08 352K
20260501T12Z_MSC_RDPS_DewPointDepression_IsbL-0550_RLatLon0.09_PT041H.grib2 2026-05-01 15:08 365K
20260501T12Z_MSC_RDPS_DewPointDepression_IsbL-0600_RLatLon0.09_PT041H.grib2 2026-05-01 15:08 376K
20260501T12Z_MSC_RDPS_DewPointDepression_IsbL-0650_RLatLon0.09_PT041H.grib2 2026-05-01 15:08 382K
20260501T12Z_MSC_RDPS_DewPointDepression_IsbL-0700_RLatLon0.09_PT041H.grib2 2026-05-01 15:08 392K
20260501T12Z_MSC_RDPS_DewPointDepression_IsbL-0750_RLatLon0.09_PT041H.grib2 2026-05-01 15:08 409K
20260501T12Z_MSC_RDPS_DewPointDepression_IsbL-0800_RLatLon0.09_PT041H.grib2 2026-05-01 15:08 437K
20260501T12Z_MSC_RDPS_DewPointDepression_IsbL-0850_RLatLon0.09_PT041H.grib2 2026-05-01 15:08 469K
20260501T12Z_MSC_RDPS_DewPointDepression_IsbL-0875_RLatLon0.09_PT041H.grib2 2026-05-01 15:08 474K
20260501T12Z_MSC_RDPS_DewPointDepression_IsbL-0900_RLatLon0.09_PT041H.grib2 2026-05-01 15:08 464K
20260501T12Z_MSC_RDPS_DewPointDepression_IsbL-0925_RLatLon0.09_PT041H.grib2 2026-05-01 15:08 445K
20260501T12Z_MSC_RDPS_DewPointDepression_IsbL-0950_RLatLon0.09_PT041H.grib2 2026-05-01 15:08 439K
20260501T12Z_MSC_RDPS_DewPointDepression_IsbL-0970_RLatLon0.09_PT041H.grib2 2026-05-01 15:08 430K
20260501T12Z_MSC_RDPS_DewPointDepression_IsbL-0985_RLatLon0.09_PT041H.grib2 2026-05-01 15:08 425K
20260501T12Z_MSC_RDPS_DewPointDepression_IsbL-1000_RLatLon0.09_PT041H.grib2 2026-05-01 15:08 419K
20260501T12Z_MSC_RDPS_DewPointDepression_IsbL-1015_RLatLon0.09_PT041H.grib2 2026-05-01 15:08 410K
20260501T12Z_MSC_RDPS_DewPoint_AGL-2m_RLatLon0.09_PT041H.grib2 2026-05-01 15:08 303K
20260501T12Z_MSC_RDPS_DownwardLongwaveRadiationFlux-Accum_Sfc_RLatLon0.09_PT041H.grib2 2026-05-01 15:08 388K
20260501T12Z_MSC_RDPS_DownwardShortwaveRadiationFlux-Accum_NTAtm_RLatLon0.09_PT041H.grib2 2026-05-01 15:08 144K
20260501T12Z_MSC_RDPS_DownwardShortwaveRadiationFlux-Accum_Sfc_RLatLon0.09_PT041H.grib2 2026-05-01 15:08 546K
20260501T12Z_MSC_RDPS_FreezingRain-Accum1h_Sfc_RLatLon0.09_PT041H.grib2 2026-05-01 15:08 27K
20260501T12Z_MSC_RDPS_FreezingRain-Accum_Sfc_RLatLon0.09_PT041H.grib2 2026-05-01 15:08 145K
20260501T12Z_MSC_RDPS_GeopotentialHeight_IsbL-0001_RLatLon0.09_PT041H.grib2 2026-05-01 15:08 234K
20260501T12Z_MSC_RDPS_GeopotentialHeight_IsbL-0005_RLatLon0.09_PT041H.grib2 2026-05-01 15:08 296K
20260501T12Z_MSC_RDPS_GeopotentialHeight_IsbL-0010_RLatLon0.09_PT041H.grib2 2026-05-01 15:08 299K
20260501T12Z_MSC_RDPS_GeopotentialHeight_IsbL-0020_RLatLon0.09_PT041H.grib2 2026-05-01 15:08 394K
20260501T12Z_MSC_RDPS_GeopotentialHeight_IsbL-0030_RLatLon0.09_PT041H.grib2 2026-05-01 15:08 301K
20260501T12Z_MSC_RDPS_GeopotentialHeight_IsbL-0050_RLatLon0.09_PT041H.grib2 2026-05-01 15:08 338K
20260501T12Z_MSC_RDPS_GeopotentialHeight_IsbL-0100_RLatLon0.09_PT041H.grib2 2026-05-01 15:08 282K
20260501T12Z_MSC_RDPS_GeopotentialHeight_IsbL-0150_RLatLon0.09_PT041H.grib2 2026-05-01 15:08 228K
20260501T12Z_MSC_RDPS_GeopotentialHeight_IsbL-0175_RLatLon0.09_PT041H.grib2 2026-05-01 15:08 231K
20260501T12Z_MSC_RDPS_GeopotentialHeight_IsbL-0200_RLatLon0.09_PT041H.grib2 2026-05-01 15:08 262K
20260501T12Z_MSC_RDPS_GeopotentialHeight_IsbL-0225_RLatLon0.09_PT041H.grib2 2026-05-01 15:08 262K
20260501T12Z_MSC_RDPS_GeopotentialHeight_IsbL-0250_RLatLon0.09_PT041H.grib2 2026-05-01 15:08 263K
20260501T12Z_MSC_RDPS_GeopotentialHeight_IsbL-0275_RLatLon0.09_PT041H.grib2 2026-05-01 15:08 263K
20260501T12Z_MSC_RDPS_GeopotentialHeight_IsbL-0300_RLatLon0.09_PT041H.grib2 2026-05-01 15:08 263K
20260501T12Z_MSC_RDPS_GeopotentialHeight_IsbL-0350_RLatLon0.09_PT041H.grib2 2026-05-01 15:08 229K
20260501T12Z_MSC_RDPS_GeopotentialHeight_IsbL-0400_RLatLon0.09_PT041H.grib2 2026-05-01 15:08 226K
20260501T12Z_MSC_RDPS_GeopotentialHeight_IsbL-0450_RLatLon0.09_PT041H.grib2 2026-05-01 15:08 296K
20260501T12Z_MSC_RDPS_GeopotentialHeight_IsbL-0500_RLatLon0.09_PT041H.grib2 2026-05-01 15:08 291K
20260501T12Z_MSC_RDPS_GeopotentialHeight_IsbL-0550_RLatLon0.09_PT041H.grib2 2026-05-01 15:08 287K
20260501T12Z_MSC_RDPS_GeopotentialHeight_IsbL-0600_RLatLon0.09_PT041H.grib2 2026-05-01 15:08 285K
20260501T12Z_MSC_RDPS_GeopotentialHeight_IsbL-0650_RLatLon0.09_PT041H.grib2 2026-05-01 15:08 254K
20260501T12Z_MSC_RDPS_GeopotentialHeight_IsbL-0700_RLatLon0.09_PT041H.grib2 2026-05-01 15:08 253K
20260501T12Z_MSC_RDPS_GeopotentialHeight_IsbL-0750_RLatLon0.09_PT041H.grib2 2026-05-01 15:08 256K
20260501T12Z_MSC_RDPS_GeopotentialHeight_IsbL-0800_RLatLon0.09_PT041H.grib2 2026-05-01 15:08 345K
20260501T12Z_MSC_RDPS_GeopotentialHeight_IsbL-0850_RLatLon0.09_PT041H.grib2 2026-05-01 15:08 354K
20260501T12Z_MSC_RDPS_GeopotentialHeight_IsbL-0875_RLatLon0.09_PT041H.grib2 2026-05-01 15:08 355K
20260501T12Z_MSC_RDPS_GeopotentialHeight_IsbL-0900_RLatLon0.09_PT041H.grib2 2026-05-01 15:08 360K
20260501T12Z_MSC_RDPS_GeopotentialHeight_IsbL-0925_RLatLon0.09_PT041H.grib2 2026-05-01 15:08 362K
20260501T12Z_MSC_RDPS_GeopotentialHeight_IsbL-0950_RLatLon0.09_PT041H.grib2 2026-05-01 15:08 367K
20260501T12Z_MSC_RDPS_GeopotentialHeight_IsbL-0970_RLatLon0.09_PT041H.grib2 2026-05-01 15:08 371K
20260501T12Z_MSC_RDPS_GeopotentialHeight_IsbL-0985_RLatLon0.09_PT041H.grib2 2026-05-01 15:08 379K
20260501T12Z_MSC_RDPS_GeopotentialHeight_IsbL-1000_RLatLon0.09_PT041H.grib2 2026-05-01 15:08 389K
20260501T12Z_MSC_RDPS_GeopotentialHeight_IsbL-1015_RLatLon0.09_PT041H.grib2 2026-05-01 15:08 403K
20260501T12Z_MSC_RDPS_Humidex_Sfc_RLatLon0.09_PT041H.grib2 2026-05-01 15:08 2.4M
20260501T12Z_MSC_RDPS_IcePellets-Accum1h_Sfc_RLatLon0.09_PT041H.grib2 2026-05-01 15:08 3.5K
20260501T12Z_MSC_RDPS_IcePellets-Accum_Sfc_RLatLon0.09_PT041H.grib2 2026-05-01 15:08 23K
20260501T12Z_MSC_RDPS_KIndex_Sfc_RLatLon0.09_PT041H.grib2 2026-05-01 15:08 2.4M
20260501T12Z_MSC_RDPS_LatentHeatNetFlux_Sfc_RLatLon0.09_PT041H.grib2 2026-05-01 15:08 405K
20260501T12Z_MSC_RDPS_LiftedIndex-MU-VT_IsbL-0500_RLatLon0.09_PT041H.grib2 2026-05-01 15:08 2.4M
20260501T12Z_MSC_RDPS_NetLongwaveRadiationFlux-Accum_Sfc_RLatLon0.09_PT041H.grib2 2026-05-01 15:08 528K
20260501T12Z_MSC_RDPS_NetShortwaveRadiationFlux-Accum_Sfc_RLatLon0.09_PT041H.grib2 2026-05-01 15:08 548K
20260501T12Z_MSC_RDPS_PlanetaryBoundaryLayerHeight_Sfc_RLatLon0.09_PT041H.grib2 2026-05-01 15:08 1.1M
20260501T12Z_MSC_RDPS_Precip-Accum1h_Sfc_RLatLon0.09_PT041H.grib2 2026-05-01 15:08 1.2M
20260501T12Z_MSC_RDPS_Precip-Accum_Sfc_RLatLon0.09_PT041H.grib2 2026-05-01 15:08 2.0M
20260501T12Z_MSC_RDPS_PrecipRate_Sfc_RLatLon0.09_PT041H.grib2 2026-05-01 15:08 163K
20260501T12Z_MSC_RDPS_PrecipType-Instant_Sfc_RLatLon0.09_PT041H.grib2 2026-05-01 15:08 586K
20260501T12Z_MSC_RDPS_Pressure-Trend3h_Sfc_RLatLon0.09_PT041H.grib2 2026-05-01 15:08 1.2M
20260501T12Z_MSC_RDPS_Pressure_MSL_RLatLon0.09_PT041H.grib2 2026-05-01 15:08 322K
20260501T12Z_MSC_RDPS_Pressure_PVU-1.5_RLatLon0.09_PT041H.grib2 2026-05-01 15:08 2.5M
20260501T12Z_MSC_RDPS_Pressure_PVU-1_RLatLon0.09_PT041H.grib2 2026-05-01 15:08 2.4M
20260501T12Z_MSC_RDPS_Pressure_PVU-2_RLatLon0.09_PT041H.grib2 2026-05-01 15:08 2.4M
20260501T12Z_MSC_RDPS_Pressure_Sfc_RLatLon0.09_PT041H.grib2 2026-05-01 15:08 498K
20260501T12Z_MSC_RDPS_RadiativeTemp_Sfc_RLatLon0.09_PT041H.grib2 2026-05-01 15:08 302K
20260501T12Z_MSC_RDPS_Rain-Accum1h_Sfc_RLatLon0.09_PT041H.grib2 2026-05-01 15:08 602K
20260501T12Z_MSC_RDPS_Rain-Accum_Sfc_RLatLon0.09_PT041H.grib2 2026-05-01 15:08 1.6M
20260501T12Z_MSC_RDPS_RelativeHumidity_AGL-2m_RLatLon0.09_PT041H.grib2 2026-05-01 15:08 1.0M
20260501T12Z_MSC_RDPS_RelativeHumidity_IsbL-0010_RLatLon0.09_PT041H.grib2 2026-05-01 15:08 627K
20260501T12Z_MSC_RDPS_RelativeHumidity_IsbL-0020_RLatLon0.09_PT041H.grib2 2026-05-01 15:08 668K
20260501T12Z_MSC_RDPS_RelativeHumidity_IsbL-0030_RLatLon0.09_PT041H.grib2 2026-05-01 15:08 603K
20260501T12Z_MSC_RDPS_RelativeHumidity_IsbL-0050_RLatLon0.09_PT041H.grib2 2026-05-01 15:08 308K
20260501T12Z_MSC_RDPS_RelativeHumidity_IsbL-0100_RLatLon0.09_PT041H.grib2 2026-05-01 15:08 278K
20260501T12Z_MSC_RDPS_RelativeHumidity_IsbL-0150_RLatLon0.09_PT041H.grib2 2026-05-01 15:08 412K
20260501T12Z_MSC_RDPS_RelativeHumidity_IsbL-0175_RLatLon0.09_PT041H.grib2 2026-05-01 15:08 472K
20260501T12Z_MSC_RDPS_RelativeHumidity_IsbL-0200_RLatLon0.09_PT041H.grib2 2026-05-01 15:08 546K
20260501T12Z_MSC_RDPS_RelativeHumidity_IsbL-0225_RLatLon0.09_PT041H.grib2 2026-05-01 15:08 609K
20260501T12Z_MSC_RDPS_RelativeHumidity_IsbL-0250_RLatLon0.09_PT041H.grib2 2026-05-01 15:08 672K
20260501T12Z_MSC_RDPS_RelativeHumidity_IsbL-0275_RLatLon0.09_PT041H.grib2 2026-05-01 15:08 696K
20260501T12Z_MSC_RDPS_RelativeHumidity_IsbL-0300_RLatLon0.09_PT041H.grib2 2026-05-01 15:08 738K
20260501T12Z_MSC_RDPS_RelativeHumidity_IsbL-0350_RLatLon0.09_PT041H.grib2 2026-05-01 15:08 769K
20260501T12Z_MSC_RDPS_RelativeHumidity_IsbL-0400_RLatLon0.09_PT041H.grib2 2026-05-01 15:08 784K
20260501T12Z_MSC_RDPS_RelativeHumidity_IsbL-0450_RLatLon0.09_PT041H.grib2 2026-05-01 15:08 791K
20260501T12Z_MSC_RDPS_RelativeHumidity_IsbL-0500_RLatLon0.09_PT041H.grib2 2026-05-01 15:08 800K
20260501T12Z_MSC_RDPS_RelativeHumidity_IsbL-0550_RLatLon0.09_PT041H.grib2 2026-05-01 15:08 820K
20260501T12Z_MSC_RDPS_RelativeHumidity_IsbL-0600_RLatLon0.09_PT041H.grib2 2026-05-01 15:08 842K
20260501T12Z_MSC_RDPS_RelativeHumidity_IsbL-0650_RLatLon0.09_PT041H.grib2 2026-05-01 15:08 855K
20260501T12Z_MSC_RDPS_RelativeHumidity_IsbL-0700_RLatLon0.09_PT041H.grib2 2026-05-01 15:08 885K
20260501T12Z_MSC_RDPS_RelativeHumidity_IsbL-0750_RLatLon0.09_PT041H.grib2 2026-05-01 15:08 922K
20260501T12Z_MSC_RDPS_RelativeHumidity_IsbL-0800_RLatLon0.09_PT041H.grib2 2026-05-01 15:08 1.0M
20260501T12Z_MSC_RDPS_RelativeHumidity_IsbL-0850_RLatLon0.09_PT041H.grib2 2026-05-01 15:08 1.0M
20260501T12Z_MSC_RDPS_RelativeHumidity_IsbL-0875_RLatLon0.09_PT041H.grib2 2026-05-01 15:08 1.1M
20260501T12Z_MSC_RDPS_RelativeHumidity_IsbL-0900_RLatLon0.09_PT041H.grib2 2026-05-01 15:08 1.1M
20260501T12Z_MSC_RDPS_RelativeHumidity_IsbL-0925_RLatLon0.09_PT041H.grib2 2026-05-01 15:08 1.1M
20260501T12Z_MSC_RDPS_RelativeHumidity_IsbL-0950_RLatLon0.09_PT041H.grib2 2026-05-01 15:08 1.1M
20260501T12Z_MSC_RDPS_RelativeHumidity_IsbL-0970_RLatLon0.09_PT041H.grib2 2026-05-01 15:08 1.0M
20260501T12Z_MSC_RDPS_RelativeHumidity_IsbL-0985_RLatLon0.09_PT041H.grib2 2026-05-01 15:08 1.0M
20260501T12Z_MSC_RDPS_RelativeHumidity_IsbL-1000_RLatLon0.09_PT041H.grib2 2026-05-01 15:08 1.0M
20260501T12Z_MSC_RDPS_RelativeHumidity_IsbL-1015_RLatLon0.09_PT041H.grib2 2026-05-01 15:08 1.0M
20260501T12Z_MSC_RDPS_Runoff-Accum_Sfc_RLatLon0.09_PT041H.grib2 2026-05-01 15:08 54K
20260501T12Z_MSC_RDPS_SWEATIndex_Sfc_RLatLon0.09_PT041H.grib2 2026-05-01 15:08 2.4M
20260501T12Z_MSC_RDPS_SeeingIndex_EAtm_RLatLon0.09_PT041H.grib2 2026-05-01 15:08 1.0M
20260501T12Z_MSC_RDPS_SensibleHeatNetFlux_Sfc_RLatLon0.09_PT041H.grib2 2026-05-01 15:08 288K
20260501T12Z_MSC_RDPS_ShowalterIndex_IsbL-0500_RLatLon0.09_PT041H.grib2 2026-05-01 15:08 2.6M
20260501T12Z_MSC_RDPS_SkyTransparencyIndex_EAtm_RLatLon0.09_PT041H.grib2 2026-05-01 15:08 700K
20260501T12Z_MSC_RDPS_Snow-Accum1h_Sfc_RLatLon0.09_PT041H.grib2 2026-05-01 15:08 397K
20260501T12Z_MSC_RDPS_Snow-Accum_Sfc_RLatLon0.09_PT041H.grib2 2026-05-01 15:08 684K
20260501T12Z_MSC_RDPS_SnowDensity_Sfc_RLatLon0.09_PT041H.grib2 2026-05-01 15:08 171K
20260501T12Z_MSC_RDPS_SnowDepth_Sfc_RLatLon0.09_PT041H.grib2 2026-05-01 15:08 658K
20260501T12Z_MSC_RDPS_SoilTemp_DBS-0to10cm_RLatLon0.09_PT041H.grib2 2026-05-01 15:08 238K
20260501T12Z_MSC_RDPS_SoilTemp_Sfc_RLatLon0.09_PT041H.grib2 2026-05-01 15:08 268K
20260501T12Z_MSC_RDPS_SoilVolumetricIceContent_Sfc_RLatLon0.09_PT041H.grib2 2026-05-01 15:08 158K
20260501T12Z_MSC_RDPS_SoilVolumetricWaterContent_DBS-0to10cm_RLatLon0.09_PT041H.grib2 2026-05-01 15:08 273K
20260501T12Z_MSC_RDPS_SoilVolumetricWaterContent_DBS-0to1cm_RLatLon0.09_PT041H.grib2 2026-05-01 15:08 344K
20260501T12Z_MSC_RDPS_SpecificHumidity_AGL-120m_RLatLon0.09_PT041H.grib2 2026-05-01 15:08 485K
20260501T12Z_MSC_RDPS_SpecificHumidity_AGL-2m_RLatLon0.09_PT041H.grib2 2026-05-01 15:08 648K
20260501T12Z_MSC_RDPS_SpecificHumidity_AGL-40m_RLatLon0.09_PT041H.grib2 2026-05-01 15:08 490K
20260501T12Z_MSC_RDPS_SpecificHumidity_AGL-80m_RLatLon0.09_PT041H.grib2 2026-05-01 15:08 486K
20260501T12Z_MSC_RDPS_SpecificHumidity_IsbL-0001_RLatLon0.09_PT041H.grib2 2026-05-01 15:08 357K
20260501T12Z_MSC_RDPS_SpecificHumidity_IsbL-0005_RLatLon0.09_PT041H.grib2 2026-05-01 15:08 365K
20260501T12Z_MSC_RDPS_SpecificHumidity_IsbL-0010_RLatLon0.09_PT041H.grib2 2026-05-01 15:08 396K
20260501T12Z_MSC_RDPS_SpecificHumidity_IsbL-0020_RLatLon0.09_PT041H.grib2 2026-05-01 15:08 377K
20260501T12Z_MSC_RDPS_SpecificHumidity_IsbL-0030_RLatLon0.09_PT041H.grib2 2026-05-01 15:08 371K
20260501T12Z_MSC_RDPS_SpecificHumidity_IsbL-0050_RLatLon0.09_PT041H.grib2 2026-05-01 15:08 450K
20260501T12Z_MSC_RDPS_SpecificHumidity_IsbL-0100_RLatLon0.09_PT041H.grib2 2026-05-01 15:08 447K
20260501T12Z_MSC_RDPS_SpecificHumidity_IsbL-0150_RLatLon0.09_PT041H.grib2 2026-05-01 15:08 455K
20260501T12Z_MSC_RDPS_SpecificHumidity_IsbL-0175_RLatLon0.09_PT041H.grib2 2026-05-01 15:08 535K
20260501T12Z_MSC_RDPS_SpecificHumidity_IsbL-0200_RLatLon0.09_PT041H.grib2 2026-05-01 15:08 447K
20260501T12Z_MSC_RDPS_SpecificHumidity_IsbL-0225_RLatLon0.09_PT041H.grib2 2026-05-01 15:08 448K
20260501T12Z_MSC_RDPS_SpecificHumidity_IsbL-0250_RLatLon0.09_PT041H.grib2 2026-05-01 15:08 549K
20260501T12Z_MSC_RDPS_SpecificHumidity_IsbL-0275_RLatLon0.09_PT041H.grib2 2026-05-01 15:08 464K
20260501T12Z_MSC_RDPS_SpecificHumidity_IsbL-0300_RLatLon0.09_PT041H.grib2 2026-05-01 15:08 438K
20260501T12Z_MSC_RDPS_SpecificHumidity_IsbL-0350_RLatLon0.09_PT041H.grib2 2026-05-01 15:08 563K
20260501T12Z_MSC_RDPS_SpecificHumidity_IsbL-0400_RLatLon0.09_PT041H.grib2 2026-05-01 15:08 520K
20260501T12Z_MSC_RDPS_SpecificHumidity_IsbL-0450_RLatLon0.09_PT041H.grib2 2026-05-01 15:08 571K
20260501T12Z_MSC_RDPS_SpecificHumidity_IsbL-0500_RLatLon0.09_PT041H.grib2 2026-05-01 15:08 507K
20260501T12Z_MSC_RDPS_SpecificHumidity_IsbL-0550_RLatLon0.09_PT041H.grib2 2026-05-01 15:08 582K
20260501T12Z_MSC_RDPS_SpecificHumidity_IsbL-0600_RLatLon0.09_PT041H.grib2 2026-05-01 15:08 636K
20260501T12Z_MSC_RDPS_SpecificHumidity_IsbL-0650_RLatLon0.09_PT041H.grib2 2026-05-01 15:08 553K
20260501T12Z_MSC_RDPS_SpecificHumidity_IsbL-0700_RLatLon0.09_PT041H.grib2 2026-05-01 15:08 595K
20260501T12Z_MSC_RDPS_SpecificHumidity_IsbL-0750_RLatLon0.09_PT041H.grib2 2026-05-01 15:08 647K
20260501T12Z_MSC_RDPS_SpecificHumidity_IsbL-0800_RLatLon0.09_PT041H.grib2 2026-05-01 15:08 723K
20260501T12Z_MSC_RDPS_SpecificHumidity_IsbL-0850_RLatLon0.09_PT041H.grib2 2026-05-01 15:08 798K
20260501T12Z_MSC_RDPS_SpecificHumidity_IsbL-0875_RLatLon0.09_PT041H.grib2 2026-05-01 15:08 827K
20260501T12Z_MSC_RDPS_SpecificHumidity_IsbL-0900_RLatLon0.09_PT041H.grib2 2026-05-01 15:08 842K
20260501T12Z_MSC_RDPS_SpecificHumidity_IsbL-0925_RLatLon0.09_PT041H.grib2 2026-05-01 15:08 838K
20260501T12Z_MSC_RDPS_SpecificHumidity_IsbL-0950_RLatLon0.09_PT041H.grib2 2026-05-01 15:08 838K
20260501T12Z_MSC_RDPS_SpecificHumidity_IsbL-0970_RLatLon0.09_PT041H.grib2 2026-05-01 15:08 686K
20260501T12Z_MSC_RDPS_SpecificHumidity_IsbL-0985_RLatLon0.09_PT041H.grib2 2026-05-01 15:08 679K
20260501T12Z_MSC_RDPS_SpecificHumidity_IsbL-1000_RLatLon0.09_PT041H.grib2 2026-05-01 15:08 673K
20260501T12Z_MSC_RDPS_SpecificHumidity_IsbL-1015_RLatLon0.09_PT041H.grib2 2026-05-01 15:08 662K
20260501T12Z_MSC_RDPS_SpecificHumidity_Sfc_RLatLon0.09_PT041H.grib2 2026-05-01 15:08 299K
20260501T12Z_MSC_RDPS_StormRelativeHelicity_EtaL-10000_RLatLon0.09_PT041H.grib2 2026-05-01 15:08 1.1M
20260501T12Z_MSC_RDPS_StormSeverityIndex_EtaL-10000_RLatLon0.09_PT041H.grib2 2026-05-01 15:08 1.2M
20260501T12Z_MSC_RDPS_Thickness_IsbL-0850to0700_RLatLon0.09_PT041H.grib2 2026-05-01 15:08 175K
20260501T12Z_MSC_RDPS_Thickness_IsbL-1000to0500_RLatLon0.09_PT041H.grib2 2026-05-01 15:08 195K
20260501T12Z_MSC_RDPS_Thickness_IsbL-1000to0850_RLatLon0.09_PT041H.grib2 2026-05-01 15:08 258K
20260501T12Z_MSC_RDPS_TotalCloudCover_Sfc_RLatLon0.09_PT041H.grib2 2026-05-01 15:08 650K
20260501T12Z_MSC_RDPS_TotalTotalsIndex_Sfc_RLatLon0.09_PT041H.grib2 2026-05-01 15:08 2.3M
20260501T12Z_MSC_RDPS_UVIndex-ClearSky_Sfc_RLatLon0.09_PT041H.grib2 2026-05-01 15:08 102K
20260501T12Z_MSC_RDPS_UVIndex_Sfc_RLatLon0.09_PT041H.grib2 2026-05-01 15:08 174K
20260501T12Z_MSC_RDPS_UpwardLongwaveRadiationFlux_NTAtm_RLatLon0.09_PT041H.grib2 2026-05-01 15:08 478K
20260501T12Z_MSC_RDPS_UpwardShortwaveRadiationFlux_NTAtm_RLatLon0.09_PT041H.grib2 2026-05-01 15:08 146K
20260501T12Z_MSC_RDPS_VerticalVelocity_IsbL-0250_RLatLon0.09_PT041H.grib2 2026-05-01 15:08 428K
20260501T12Z_MSC_RDPS_VerticalVelocity_IsbL-0500_RLatLon0.09_PT041H.grib2 2026-05-01 15:08 535K
20260501T12Z_MSC_RDPS_VerticalVelocity_IsbL-0700_RLatLon0.09_PT041H.grib2 2026-05-01 15:08 588K
20260501T12Z_MSC_RDPS_VerticalVelocity_IsbL-0850_RLatLon0.09_PT041H.grib2 2026-05-01 15:08 645K
20260501T12Z_MSC_RDPS_VerticalWindShear_EtaL-6500_RLatLon0.09_PT041H.grib2 2026-05-01 15:08 1.2M
20260501T12Z_MSC_RDPS_WindChill_Sfc_RLatLon0.09_PT041H.grib2 2026-05-01 15:08 1.2M
20260501T12Z_MSC_RDPS_WindDir_AGL-10m_RLatLon0.09_PT041H.grib2 2026-05-01 15:08 959K
20260501T12Z_MSC_RDPS_WindDir_AGL-120m_RLatLon0.09_PT041H.grib2 2026-05-01 15:08 595K
20260501T12Z_MSC_RDPS_WindDir_AGL-40m_RLatLon0.09_PT041H.grib2 2026-05-01 15:08 627K
20260501T12Z_MSC_RDPS_WindDir_AGL-80m_RLatLon0.09_PT041H.grib2 2026-05-01 15:08 607K
20260501T12Z_MSC_RDPS_WindDir_IsbL-0001_RLatLon0.09_PT041H.grib2 2026-05-01 15:08 308K
20260501T12Z_MSC_RDPS_WindDir_IsbL-0005_RLatLon0.09_PT041H.grib2 2026-05-01 15:08 390K
20260501T12Z_MSC_RDPS_WindDir_IsbL-0010_RLatLon0.09_PT041H.grib2 2026-05-01 15:08 399K
20260501T12Z_MSC_RDPS_WindDir_IsbL-0020_RLatLon0.09_PT041H.grib2 2026-05-01 15:08 426K
20260501T12Z_MSC_RDPS_WindDir_IsbL-0030_RLatLon0.09_PT041H.grib2 2026-05-01 15:08 426K
20260501T12Z_MSC_RDPS_WindDir_IsbL-0050_RLatLon0.09_PT041H.grib2 2026-05-01 15:08 421K
20260501T12Z_MSC_RDPS_WindDir_IsbL-0100_RLatLon0.09_PT041H.grib2 2026-05-01 15:08 417K
20260501T12Z_MSC_RDPS_WindDir_IsbL-0150_RLatLon0.09_PT041H.grib2 2026-05-01 15:08 409K
20260501T12Z_MSC_RDPS_WindDir_IsbL-0175_RLatLon0.09_PT041H.grib2 2026-05-01 15:08 421K
20260501T12Z_MSC_RDPS_WindDir_IsbL-0200_RLatLon0.09_PT041H.grib2 2026-05-01 15:08 438K
20260501T12Z_MSC_RDPS_WindDir_IsbL-0225_RLatLon0.09_PT041H.grib2 2026-05-01 15:08 445K
20260501T12Z_MSC_RDPS_WindDir_IsbL-0250_RLatLon0.09_PT041H.grib2 2026-05-01 15:08 447K
20260501T12Z_MSC_RDPS_WindDir_IsbL-0275_RLatLon0.09_PT041H.grib2 2026-05-01 15:08 472K
20260501T12Z_MSC_RDPS_WindDir_IsbL-0300_RLatLon0.09_PT041H.grib2 2026-05-01 15:08 471K
20260501T12Z_MSC_RDPS_WindDir_IsbL-0350_RLatLon0.09_PT041H.grib2 2026-05-01 15:08 498K
20260501T12Z_MSC_RDPS_WindDir_IsbL-0400_RLatLon0.09_PT041H.grib2 2026-05-01 15:08 517K
20260501T12Z_MSC_RDPS_WindDir_IsbL-0450_RLatLon0.09_PT041H.grib2 2026-05-01 15:08 525K
20260501T12Z_MSC_RDPS_WindDir_IsbL-0500_RLatLon0.09_PT041H.grib2 2026-05-01 15:08 535K
20260501T12Z_MSC_RDPS_WindDir_IsbL-0550_RLatLon0.09_PT041H.grib2 2026-05-01 15:08 551K
20260501T12Z_MSC_RDPS_WindDir_IsbL-0600_RLatLon0.09_PT041H.grib2 2026-05-01 15:08 575K
20260501T12Z_MSC_RDPS_WindDir_IsbL-0650_RLatLon0.09_PT041H.grib2 2026-05-01 15:08 608K
20260501T12Z_MSC_RDPS_WindDir_IsbL-0700_RLatLon0.09_PT041H.grib2 2026-05-01 15:08 651K
20260501T12Z_MSC_RDPS_WindDir_IsbL-0750_RLatLon0.09_PT041H.grib2 2026-05-01 15:08 695K
20260501T12Z_MSC_RDPS_WindDir_IsbL-0800_RLatLon0.09_PT041H.grib2 2026-05-01 15:08 760K
20260501T12Z_MSC_RDPS_WindDir_IsbL-0850_RLatLon0.09_PT041H.grib2 2026-05-01 15:08 847K
20260501T12Z_MSC_RDPS_WindDir_IsbL-0875_RLatLon0.09_PT041H.grib2 2026-05-01 15:08 881K
20260501T12Z_MSC_RDPS_WindDir_IsbL-0900_RLatLon0.09_PT041H.grib2 2026-05-01 15:08 899K
20260501T12Z_MSC_RDPS_WindDir_IsbL-0925_RLatLon0.09_PT041H.grib2 2026-05-01 15:08 909K
20260501T12Z_MSC_RDPS_WindDir_IsbL-0950_RLatLon0.09_PT041H.grib2 2026-05-01 15:08 907K
20260501T12Z_MSC_RDPS_WindDir_IsbL-0970_RLatLon0.09_PT041H.grib2 2026-05-01 15:08 917K
20260501T12Z_MSC_RDPS_WindDir_IsbL-0985_RLatLon0.09_PT041H.grib2 2026-05-01 15:08 922K
20260501T12Z_MSC_RDPS_WindDir_IsbL-1000_RLatLon0.09_PT041H.grib2 2026-05-01 15:08 936K
20260501T12Z_MSC_RDPS_WindDir_IsbL-1015_RLatLon0.09_PT041H.grib2 2026-05-01 15:08 950K
20260501T12Z_MSC_RDPS_WindGust-Max_AGL-10m_RLatLon0.09_PT041H.grib2 2026-05-01 15:08 1.0M
20260501T12Z_MSC_RDPS_WindGust-Min_AGL-10m_RLatLon0.09_PT041H.grib2 2026-05-01 15:08 966K
20260501T12Z_MSC_RDPS_WindGust_AGL-10m_RLatLon0.09_PT041H.grib2 2026-05-01 15:08 1.0M
20260501T12Z_MSC_RDPS_WindSpeed_AGL-10m_RLatLon0.09_PT041H.grib2 2026-05-01 15:08 832K
20260501T12Z_MSC_RDPS_WindSpeed_AGL-120m_RLatLon0.09_PT041H.grib2 2026-05-01 15:08 536K
20260501T12Z_MSC_RDPS_WindSpeed_AGL-40m_RLatLon0.09_PT041H.grib2 2026-05-01 15:08 537K
20260501T12Z_MSC_RDPS_WindSpeed_AGL-80m_RLatLon0.09_PT041H.grib2 2026-05-01 15:08 536K
20260501T12Z_MSC_RDPS_WindSpeed_IsbL-0001_RLatLon0.09_PT041H.grib2 2026-05-01 15:08 251K
20260501T12Z_MSC_RDPS_WindSpeed_IsbL-0005_RLatLon0.09_PT041H.grib2 2026-05-01 15:08 384K
20260501T12Z_MSC_RDPS_WindSpeed_IsbL-0010_RLatLon0.09_PT041H.grib2 2026-05-01 15:08 363K
20260501T12Z_MSC_RDPS_WindSpeed_IsbL-0020_RLatLon0.09_PT041H.grib2 2026-05-01 15:08 417K
20260501T12Z_MSC_RDPS_WindSpeed_IsbL-0030_RLatLon0.09_PT041H.grib2 2026-05-01 15:08 318K
20260501T12Z_MSC_RDPS_WindSpeed_IsbL-0050_RLatLon0.09_PT041H.grib2 2026-05-01 15:08 351K
20260501T12Z_MSC_RDPS_WindSpeed_IsbL-0100_RLatLon0.09_PT041H.grib2 2026-05-01 15:08 478K
20260501T12Z_MSC_RDPS_WindSpeed_IsbL-0150_RLatLon0.09_PT041H.grib2 2026-05-01 15:08 383K
20260501T12Z_MSC_RDPS_WindSpeed_IsbL-0175_RLatLon0.09_PT041H.grib2 2026-05-01 15:08 426K
20260501T12Z_MSC_RDPS_WindSpeed_IsbL-0200_RLatLon0.09_PT041H.grib2 2026-05-01 15:08 440K
20260501T12Z_MSC_RDPS_WindSpeed_IsbL-0225_RLatLon0.09_PT041H.grib2 2026-05-01 15:08 446K
20260501T12Z_MSC_RDPS_WindSpeed_IsbL-0250_RLatLon0.09_PT041H.grib2 2026-05-01 15:08 449K
20260501T12Z_MSC_RDPS_WindSpeed_IsbL-0275_RLatLon0.09_PT041H.grib2 2026-05-01 15:08 466K
20260501T12Z_MSC_RDPS_WindSpeed_IsbL-0300_RLatLon0.09_PT041H.grib2 2026-05-01 15:08 463K
20260501T12Z_MSC_RDPS_WindSpeed_IsbL-0350_RLatLon0.09_PT041H.grib2 2026-05-01 15:08 476K
20260501T12Z_MSC_RDPS_WindSpeed_IsbL-0400_RLatLon0.09_PT041H.grib2 2026-05-01 15:08 480K
20260501T12Z_MSC_RDPS_WindSpeed_IsbL-0450_RLatLon0.09_PT041H.grib2 2026-05-01 15:08 463K
20260501T12Z_MSC_RDPS_WindSpeed_IsbL-0500_RLatLon0.09_PT041H.grib2 2026-05-01 15:08 464K
20260501T12Z_MSC_RDPS_WindSpeed_IsbL-0550_RLatLon0.09_PT041H.grib2 2026-05-01 15:08 585K
20260501T12Z_MSC_RDPS_WindSpeed_IsbL-0600_RLatLon0.09_PT041H.grib2 2026-05-01 15:08 592K
20260501T12Z_MSC_RDPS_WindSpeed_IsbL-0650_RLatLon0.09_PT041H.grib2 2026-05-01 15:08 611K
20260501T12Z_MSC_RDPS_WindSpeed_IsbL-0700_RLatLon0.09_PT041H.grib2 2026-05-01 15:08 679K
20260501T12Z_MSC_RDPS_WindSpeed_IsbL-0750_RLatLon0.09_PT041H.grib2 2026-05-01 15:08 708K
20260501T12Z_MSC_RDPS_WindSpeed_IsbL-0800_RLatLon0.09_PT041H.grib2 2026-05-01 15:08 753K
20260501T12Z_MSC_RDPS_WindSpeed_IsbL-0850_RLatLon0.09_PT041H.grib2 2026-05-01 15:08 814K
20260501T12Z_MSC_RDPS_WindSpeed_IsbL-0875_RLatLon0.09_PT041H.grib2 2026-05-01 15:08 838K
20260501T12Z_MSC_RDPS_WindSpeed_IsbL-0900_RLatLon0.09_PT041H.grib2 2026-05-01 15:08 851K
20260501T12Z_MSC_RDPS_WindSpeed_IsbL-0925_RLatLon0.09_PT041H.grib2 2026-05-01 15:08 863K
20260501T12Z_MSC_RDPS_WindSpeed_IsbL-0950_RLatLon0.09_PT041H.grib2 2026-05-01 15:08 859K
20260501T12Z_MSC_RDPS_WindSpeed_IsbL-0970_RLatLon0.09_PT041H.grib2 2026-05-01 15:08 861K
20260501T12Z_MSC_RDPS_WindSpeed_IsbL-0985_RLatLon0.09_PT041H.grib2 2026-05-01 15:08 853K
20260501T12Z_MSC_RDPS_WindSpeed_IsbL-1000_RLatLon0.09_PT041H.grib2 2026-05-01 15:08 844K
20260501T12Z_MSC_RDPS_WindSpeed_IsbL-1015_RLatLon0.09_PT041H.grib2 2026-05-01 15:08 833K
20260501T12Z_MSC_RDPS_WindU_AGL-10m_RLatLon0.09_PT041H.grib2 2026-05-01 15:08 427K
20260501T12Z_MSC_RDPS_WindU_AGL-120m_RLatLon0.09_PT041H.grib2 2026-05-01 15:08 531K
20260501T12Z_MSC_RDPS_WindU_AGL-40m_RLatLon0.09_PT041H.grib2 2026-05-01 15:08 533K
20260501T12Z_MSC_RDPS_WindU_AGL-80m_RLatLon0.09_PT041H.grib2 2026-05-01 15:08 532K
20260501T12Z_MSC_RDPS_WindU_IsbL-0001_RLatLon0.09_PT041H.grib2 2026-05-01 15:08 240K
20260501T12Z_MSC_RDPS_WindU_IsbL-0005_RLatLon0.09_PT041H.grib2 2026-05-01 15:08 284K
20260501T12Z_MSC_RDPS_WindU_IsbL-0010_RLatLon0.09_PT041H.grib2 2026-05-01 15:08 295K
20260501T12Z_MSC_RDPS_WindU_IsbL-0020_RLatLon0.09_PT041H.grib2 2026-05-01 15:08 312K
20260501T12Z_MSC_RDPS_WindU_IsbL-0030_RLatLon0.09_PT041H.grib2 2026-05-01 15:08 351K
20260501T12Z_MSC_RDPS_WindU_IsbL-0050_RLatLon0.09_PT041H.grib2 2026-05-01 15:08 378K
20260501T12Z_MSC_RDPS_WindU_IsbL-0100_RLatLon0.09_PT041H.grib2 2026-05-01 15:08 433K
20260501T12Z_MSC_RDPS_WindU_IsbL-0150_RLatLon0.09_PT041H.grib2 2026-05-01 15:08 398K
20260501T12Z_MSC_RDPS_WindU_IsbL-0175_RLatLon0.09_PT041H.grib2 2026-05-01 15:08 418K
20260501T12Z_MSC_RDPS_WindU_IsbL-0200_RLatLon0.09_PT041H.grib2 2026-05-01 15:08 336K
20260501T12Z_MSC_RDPS_WindU_IsbL-0225_RLatLon0.09_PT041H.grib2 2026-05-01 15:08 340K
20260501T12Z_MSC_RDPS_WindU_IsbL-0250_RLatLon0.09_PT041H.grib2 2026-05-01 15:08 340K
20260501T12Z_MSC_RDPS_WindU_IsbL-0275_RLatLon0.09_PT041H.grib2 2026-05-01 15:08 355K
20260501T12Z_MSC_RDPS_WindU_IsbL-0300_RLatLon0.09_PT041H.grib2 2026-05-01 15:08 351K
20260501T12Z_MSC_RDPS_WindU_IsbL-0350_RLatLon0.09_PT041H.grib2 2026-05-01 15:08 361K
20260501T12Z_MSC_RDPS_WindU_IsbL-0400_RLatLon0.09_PT041H.grib2 2026-05-01 15:08 470K
20260501T12Z_MSC_RDPS_WindU_IsbL-0450_RLatLon0.09_PT041H.grib2 2026-05-01 15:08 470K
20260501T12Z_MSC_RDPS_WindU_IsbL-0500_RLatLon0.09_PT041H.grib2 2026-05-01 15:08 472K
20260501T12Z_MSC_RDPS_WindU_IsbL-0550_RLatLon0.09_PT041H.grib2 2026-05-01 15:08 474K
20260501T12Z_MSC_RDPS_WindU_IsbL-0600_RLatLon0.09_PT041H.grib2 2026-05-01 15:08 464K
20260501T12Z_MSC_RDPS_WindU_IsbL-0650_RLatLon0.09_PT041H.grib2 2026-05-01 15:08 481K
20260501T12Z_MSC_RDPS_WindU_IsbL-0700_RLatLon0.09_PT041H.grib2 2026-05-01 15:08 504K
20260501T12Z_MSC_RDPS_WindU_IsbL-0750_RLatLon0.09_PT041H.grib2 2026-05-01 15:08 530K
20260501T12Z_MSC_RDPS_WindU_IsbL-0800_RLatLon0.09_PT041H.grib2 2026-05-01 15:08 569K
20260501T12Z_MSC_RDPS_WindU_IsbL-0850_RLatLon0.09_PT041H.grib2 2026-05-01 15:08 623K
20260501T12Z_MSC_RDPS_WindU_IsbL-0875_RLatLon0.09_PT041H.grib2 2026-05-01 15:08 643K
20260501T12Z_MSC_RDPS_WindU_IsbL-0900_RLatLon0.09_PT041H.grib2 2026-05-01 15:08 653K
20260501T12Z_MSC_RDPS_WindU_IsbL-0925_RLatLon0.09_PT041H.grib2 2026-05-01 15:08 660K
20260501T12Z_MSC_RDPS_WindU_IsbL-0950_RLatLon0.09_PT041H.grib2 2026-05-01 15:08 655K
20260501T12Z_MSC_RDPS_WindU_IsbL-0970_RLatLon0.09_PT041H.grib2 2026-05-01 15:08 654K
20260501T12Z_MSC_RDPS_WindU_IsbL-0985_RLatLon0.09_PT041H.grib2 2026-05-01 15:08 648K
20260501T12Z_MSC_RDPS_WindU_IsbL-1000_RLatLon0.09_PT041H.grib2 2026-05-01 15:08 780K
20260501T12Z_MSC_RDPS_WindU_IsbL-1015_RLatLon0.09_PT041H.grib2 2026-05-01 15:08 771K
20260501T12Z_MSC_RDPS_WindV_AGL-10m_RLatLon0.09_PT041H.grib2 2026-05-01 15:08 427K
20260501T12Z_MSC_RDPS_WindV_AGL-120m_RLatLon0.09_PT041H.grib2 2026-05-01 15:08 416K
20260501T12Z_MSC_RDPS_WindV_AGL-40m_RLatLon0.09_PT041H.grib2 2026-05-01 15:08 417K
20260501T12Z_MSC_RDPS_WindV_AGL-80m_RLatLon0.09_PT041H.grib2 2026-05-01 15:08 416K
20260501T12Z_MSC_RDPS_WindV_IsbL-0001_RLatLon0.09_PT041H.grib2 2026-05-01 15:08 244K
20260501T12Z_MSC_RDPS_WindV_IsbL-0005_RLatLon0.09_PT041H.grib2 2026-05-01 15:08 287K
20260501T12Z_MSC_RDPS_WindV_IsbL-0010_RLatLon0.09_PT041H.grib2 2026-05-01 15:08 388K
20260501T12Z_MSC_RDPS_WindV_IsbL-0020_RLatLon0.09_PT041H.grib2 2026-05-01 15:08 315K
20260501T12Z_MSC_RDPS_WindV_IsbL-0030_RLatLon0.09_PT041H.grib2 2026-05-01 15:08 314K
20260501T12Z_MSC_RDPS_WindV_IsbL-0050_RLatLon0.09_PT041H.grib2 2026-05-01 15:08 343K
20260501T12Z_MSC_RDPS_WindV_IsbL-0100_RLatLon0.09_PT041H.grib2 2026-05-01 15:08 431K
20260501T12Z_MSC_RDPS_WindV_IsbL-0150_RLatLon0.09_PT041H.grib2 2026-05-01 15:08 398K
20260501T12Z_MSC_RDPS_WindV_IsbL-0175_RLatLon0.09_PT041H.grib2 2026-05-01 15:08 418K
20260501T12Z_MSC_RDPS_WindV_IsbL-0200_RLatLon0.09_PT041H.grib2 2026-05-01 15:08 334K
20260501T12Z_MSC_RDPS_WindV_IsbL-0225_RLatLon0.09_PT041H.grib2 2026-05-01 15:08 338K
20260501T12Z_MSC_RDPS_WindV_IsbL-0250_RLatLon0.09_PT041H.grib2 2026-05-01 15:08 339K
20260501T12Z_MSC_RDPS_WindV_IsbL-0275_RLatLon0.09_PT041H.grib2 2026-05-01 15:08 354K
20260501T12Z_MSC_RDPS_WindV_IsbL-0300_RLatLon0.09_PT041H.grib2 2026-05-01 15:08 350K
20260501T12Z_MSC_RDPS_WindV_IsbL-0350_RLatLon0.09_PT041H.grib2 2026-05-01 15:08 360K
20260501T12Z_MSC_RDPS_WindV_IsbL-0400_RLatLon0.09_PT041H.grib2 2026-05-01 15:08 364K
20260501T12Z_MSC_RDPS_WindV_IsbL-0450_RLatLon0.09_PT041H.grib2 2026-05-01 15:08 467K
20260501T12Z_MSC_RDPS_WindV_IsbL-0500_RLatLon0.09_PT041H.grib2 2026-05-01 15:08 469K
20260501T12Z_MSC_RDPS_WindV_IsbL-0550_RLatLon0.09_PT041H.grib2 2026-05-01 15:08 471K
20260501T12Z_MSC_RDPS_WindV_IsbL-0600_RLatLon0.09_PT041H.grib2 2026-05-01 15:08 479K
20260501T12Z_MSC_RDPS_WindV_IsbL-0650_RLatLon0.09_PT041H.grib2 2026-05-01 15:08 494K
20260501T12Z_MSC_RDPS_WindV_IsbL-0700_RLatLon0.09_PT041H.grib2 2026-05-01 15:08 516K
20260501T12Z_MSC_RDPS_WindV_IsbL-0750_RLatLon0.09_PT041H.grib2 2026-05-01 15:08 540K
20260501T12Z_MSC_RDPS_WindV_IsbL-0800_RLatLon0.09_PT041H.grib2 2026-05-01 15:08 577K
20260501T12Z_MSC_RDPS_WindV_IsbL-0850_RLatLon0.09_PT041H.grib2 2026-05-01 15:08 628K
20260501T12Z_MSC_RDPS_WindV_IsbL-0875_RLatLon0.09_PT041H.grib2 2026-05-01 15:08 648K
20260501T12Z_MSC_RDPS_WindV_IsbL-0900_RLatLon0.09_PT041H.grib2 2026-05-01 15:08 658K
20260501T12Z_MSC_RDPS_WindV_IsbL-0925_RLatLon0.09_PT041H.grib2 2026-05-01 15:08 658K
20260501T12Z_MSC_RDPS_WindV_IsbL-0950_RLatLon0.09_PT041H.grib2 2026-05-01 15:08 655K
20260501T12Z_MSC_RDPS_WindV_IsbL-0970_RLatLon0.09_PT041H.grib2 2026-05-01 15:08 655K
20260501T12Z_MSC_RDPS_WindV_IsbL-0985_RLatLon0.09_PT041H.grib2 2026-05-01 15:08 648K
20260501T12Z_MSC_RDPS_WindV_IsbL-1000_RLatLon0.09_PT041H.grib2 2026-05-01 15:08 779K
20260501T12Z_MSC_RDPS_WindV_IsbL-1015_RLatLon0.09_PT041H.grib2 2026-05-01 15:08 771K